Hourly Weather Rusanovka

Today, 13 April, Tuesday

Time Temperature Precipitation Wind Pressure Humidity
00:00 +8°C° 0 mm 4 mps 759 mmHg 92%
01:00 +9°C° 0 mm 3 mps 759 mmHg 91%
02:00 +9°C° 0 mm 3 mps 759 mmHg 90%
03:00 +9°C° 0 mm 3 mps 759 mmHg 88%
04:00 +8°C° 0 mm 3 mps 759 mmHg 86%
05:00 +8°C° 0 mm 3 mps 759 mmHg 84%
06:00 +8°C° 0 mm 3 mps 759 mmHg 81%
07:00 +10°C° 0 mm 4 mps 758 mmHg 71%
08:00 +12°C° 0 mm 4 mps 758 mmHg 62%
09:00 +13°C° 0 mm 5 mps 758 mmHg 52%
10:00 +15°C° 0 mm 5 mps 758 mmHg 45%
11:00 +17°C° 0 mm 5 mps 758 mmHg 39%
12:00 +19°C° 0 mm 5 mps 758 mmHg 32%
13:00 +20°C° 0 mm 5 mps 758 mmHg 30%
14:00 +21°C° 0 mm 5 mps 757 mmHg 28%
15:00 +21°C° 0 mm 5 mps 757 mmHg 26%
16:00 +20°C° 0 mm 4 mps 757 mmHg 31%
17:00 +19°C° 0 mm 4 mps 757 mmHg 36%
18:00 +18°C° 0 mm 3 mps 756 mmHg 41%
19:00 +16°C° 0 mm 3 mps 756 mmHg 46%
20:00 +14°C° 0 mm 3 mps 757 mmHg 51%
21:00 +12°C° 0 mm 3 mps 757 mmHg 57%
22:00 +11°C° 0 mm 3 mps 756 mmHg 59%
23:00 +10°C° 0 mm 3 mps 756 mmHg 61%

Tomorrow, 14 April, Wednesday

Time Temperature Precipitation Wind Pressure Humidity
00:00 +10°C° 0 mm 3 mps 756 mmHg 63%
01:00 +9°C° 0 mm 3 mps 756 mmHg 65%
02:00 +9°C° 0 mm 3 mps 756 mmHg 68%
03:00 +8°C° 0 mm 3 mps 756 mmHg 70%
04:00 +8°C° 0 mm 3 mps 755 mmHg 72%
05:00 +7°C° 0 mm 3 mps 755 mmHg 73%
06:00 +7°C° 0 mm 3 mps 755 mmHg 75%
07:00 +9°C° 0 mm 3 mps 755 mmHg 67%
08:00 +11°C° 0 mm 3 mps 755 mmHg 59%
09:00 +13°C° 0 mm 4 mps 755 mmHg 52%
10:00 +15°C° 0 mm 4 mps 754 mmHg 46%
11:00 +17°C° 0 mm 4 mps 754 mmHg 41%
12:00 +19°C° 0 mm 4 mps 754 mmHg 36%
13:00 +19°C° 0 mm 4 mps 753 mmHg 34%
14:00 +19°C° 0 mm 4 mps 753 mmHg 32%
15:00 +20°C° 0 mm 4 mps 753 mmHg 29%
16:00 +19°C° 0 mm 4 mps 752 mmHg 34%
17:00 +18°C° 0 mm 3 mps 752 mmHg 39%
18:00 +17°C° 0 mm 2 mps 752 mmHg 44%
19:00 +14°C° 0 mm 3 mps 752 mmHg 48%
20:00 +13°C° 0 mm 3 mps 752 mmHg 52%
21:00 +12°C° 0 mm 3 mps 752 mmHg 55%
22:00 +11°C° 0 mm 3 mps 751 mmHg 58%
23:00 +10°C° 0 mm 3 mps 751 mmHg 61%

Day after tomorrow, 15 April, Thursday

Time Temperature Precipitation Wind Pressure Humidity
00:00 +10°C° 0 mm 3 mps 751 mmHg 63%
01:00 +9°C° 0 mm 2 mps 751 mmHg 65%
02:00 +8°C° 0 mm 2 mps 751 mmHg 66%
03:00 +8°C° 0 mm 2 mps 751 mmHg 68%
04:00 +8°C° 0 mm 2 mps 751 mmHg 69%
05:00 +7°C° 0 mm 2 mps 751 mmHg 70%
06:00 +7°C° 0 mm 2 mps 751 mmHg 72%
07:00 +9°C° 0 mm 2 mps 751 mmHg 66%
08:00 +12°C° 0 mm 2 mps 750 mmHg 61%
09:00 +14°C° 0 mm 2 mps 750 mmHg 56%
10:00 +15°C° 0 mm 2 mps 750 mmHg 52%
11:00 +17°C° 0 mm 3 mps 750 mmHg 48%
12:00 +19°C° 0 mm 3 mps 750 mmHg 43%
13:00 +19°C° 0 mm 2 mps 750 mmHg 40%
14:00 +20°C° 0 mm 2 mps 749 mmHg 37%
15:00 +20°C° 0 mm 2 mps 749 mmHg 34%
16:00 +20°C° 0 mm 2 mps 749 mmHg 38%
17:00 +19°C° 0 mm 2 mps 749 mmHg 42%
18:00 +18°C° 0 mm 2 mps 749 mmHg 47%
19:00 +17°C° 0 mm 3 mps 749 mmHg 51%
20:00 +14°C° 0 mm 3 mps 749 mmHg 55%
21:00 +13°C° 0 mm 3 mps 749 mmHg 60%
22:00 +12°C° 0.1 mm 3 mps 749 mmHg 63%
23:00 +12°C° 0.1 mm 2 mps 749 mmHg 67%

16 April, Friday

Time Temperature Precipitation Wind Pressure Humidity
00:00 +12°C° 0.1 mm 2 mps 749 mmHg 71%
01:00 +10°C° 0.1 mm 2 mps 749 mmHg 72%
02:00 +10°C° 0.1 mm 2 mps 749 mmHg 73%
03:00 +9°C° 0.1 mm 2 mps 749 mmHg 74%
04:00 +9°C° 0 mm 3 mps 749 mmHg 75%
05:00 +9°C° 0 mm 3 mps 749 mmHg 76%
06:00 +8°C° 0 mm 3 mps 749 mmHg 77%
07:00 +10°C° 0 mm 3 mps 749 mmHg 70%
08:00 +12°C° 0 mm 4 mps 749 mmHg 63%
09:00 +14°C° 0 mm 5 mps 749 mmHg 57%
10:00 +15°C° 0 mm 5 mps 750 mmHg 53%
11:00 +17°C° 0 mm 5 mps 750 mmHg 49%
12:00 +19°C° 0 mm 5 mps 750 mmHg 45%
13:00 +19°C° 0 mm 5 mps 750 mmHg 45%
14:00 +19°C° 0 mm 5 mps 750 mmHg 45%
15:00 +19°C° 0 mm 5 mps 750 mmHg 44%
16:00 +17°C° 0 mm 5 mps 750 mmHg 49%
17:00 +16°C° 0 mm 6 mps 751 mmHg 54%
18:00 +15°C° 0 mm 6 mps 751 mmHg 58%
19:00 +14°C° 0 mm 6 mps 751 mmHg 63%
20:00 +11°C° 0 mm 6 mps 752 mmHg 68%
21:00 +10°C° 0 mm 6 mps 752 mmHg 72%
22:00 +9°C° 0 mm 5 mps 752 mmHg 75%
23:00 +8°C° 0 mm 5 mps 753 mmHg 77%

17 April, Saturday

Time Temperature Precipitation Wind Pressure Humidity
00:00 +7°C° 0 mm 5 mps 753 mmHg 79%
01:00 +7°C° 0 mm 5 mps 753 mmHg 81%
02:00 +6°C° 0 mm 5 mps 753 mmHg 82%
03:00 +5°C° 0 mm 5 mps 753 mmHg 83%
04:00 +5°C° 0 mm 5 mps 754 mmHg 82%
05:00 +5°C° 0 mm 5 mps 754 mmHg 80%
06:00 +3°C° 0 mm 5 mps 754 mmHg 79%
07:00 +4°C° 0 mm 6 mps 755 mmHg 69%
08:00 +5°C° 0 mm 6 mps 755 mmHg 60%
09:00 +8°C° 0 mm 7 mps 755 mmHg 50%
10:00 +9°C° 0 mm 7 mps 755 mmHg 45%
11:00 +9°C° 0 mm 7 mps 756 mmHg 40%
12:00 +10°C° 0 mm 7 mps 756 mmHg 35%
13:00 +11°C° 0 mm 7 mps 756 mmHg 35%
14:00 +11°C° 0 mm 7 mps 756 mmHg 34%
15:00 +11°C° 0 mm 7 mps 756 mmHg 34%
16:00 +10°C° 0 mm 7 mps 756 mmHg 37%
17:00 +10°C° 0 mm 6 mps 756 mmHg 40%
18:00 +9°C° 0 mm 6 mps 757 mmHg 43%
19:00 +8°C° 0 mm 6 mps 757 mmHg 45%
20:00 +7°C° 0 mm 5 mps 758 mmHg 47%
21:00 +5°C° 0 mm 5 mps 758 mmHg 49%
22:00 +5°C° 0 mm 5 mps 759 mmHg 50%
23:00 +3°C° 0 mm 5 mps 759 mmHg 52%

18 April, Sunday

Time Temperature Precipitation Wind Pressure Humidity
00:00 +3°C° 0 mm 4 mps 759 mmHg 53%
01:00 +1°C° 0 mm 4 mps 760 mmHg 56%
02:00 +1°C° 0 mm 4 mps 760 mmHg 59%
03:00 +1°C° 0 mm 3 mps 760 mmHg 63%
04:00 +1°C° 0 mm 3 mps 761 mmHg 64%
05:00 0°C° 0 mm 3 mps 761 mmHg 65%
06:00 +1°C° 0 mm 2 mps 762 mmHg 66%
07:00 +2°C° 0 mm 3 mps 762 mmHg 55%
08:00 +3°C° 0 mm 3 mps 762 mmHg 44%
09:00 +5°C° 0 mm 3 mps 762 mmHg 34%
10:00 +7°C° 0 mm 3 mps 762 mmHg 31%
11:00 +8°C° 0 mm 2 mps 762 mmHg 28%
12:00 +9°C° 0 mm 2 mps 762 mmHg 25%
13:00 +10°C° 0 mm 2 mps 762 mmHg 25%
14:00 +10°C° 0 mm 2 mps 762 mmHg 25%
15:00 +12°C° 0 mm 2 mps 761 mmHg 25%
16:00 +12°C° 0 mm 2 mps 761 mmHg 28%
17:00 +10°C° 0 mm 2 mps 761 mmHg 31%
18:00 +10°C° 0 mm 2 mps 761 mmHg 34%
19:00 +10°C° 0 mm 1 mps 761 mmHg 38%
20:00 +9°C° 0 mm 1 mps 761 mmHg 41%
21:00 +7°C° 0 mm 1 mps 761 mmHg 45%
22:00 +7°C° 0 mm 1 mps 761 mmHg 48%
23:00 +6°C° 0 mm 1 mps 761 mmHg 51%
Show more